{"data":{"norad_id":62665,"epoch":"2026-05-25T04:14:21.085152Z","epoch_age_seconds":63218,"freshness":"FRESH","line1":"1 62665U 25009BJ  26145.17663293  .00003398  00000+0  15115-3 0  9994","line2":"2 62665  97.3891 224.0588 0005404  65.9685 294.2117 15.22156174 75232","mean_motion":15.22156174,"eccentricity":0.0005404,"inclination_deg":97.3891,"raan_deg":224.0588,"arg_perigee_deg":65.9685,"mean_anomaly_deg":294.2117,"bstar":0.00015115,"rev_number":7523,"period_min":94.6026448926,"perigee_km":495.62160094079,"apogee_km":503.05477612456,"semimajor_km":6877.4751885327,"source":"CELESTRAK","updated_at":"2026-05-25T13:38:03.162948Z"}}